Temp
83 89 93 93 68 61 64 75 93 88 91 98 98 90 88 90 84 74 98 100 96 90 86 86 80 81 81 81 81 81 81 80 80 80 80 80 80 80 80 80 81 81 82 82 82 82 82 82 82
96 100 97 92 74 59 67 85 88 92 96 100 97 96 89 84 95 94 94 99 96 91 89 86 80 80 81 80 81 81 81 80 80 80 80 80 80 80 80 80 81 82 82 82 82 82 82 82 82
88 99 91 85 81 74 80 90 92 95 97 95 92 93 91 87 94 94 100 100 97 94 92 82 80 80 80 80 80 82 81 80 80 80 80 80 80 80 80 80 81 82 82 82 82 82 82 82 82
96 95 94 80 80 88 89 93 94 93 91 95 86 72 90 98 95 99 102 102 98 96 90 80 80 80 80 80 80 81 81 81 80 81 79 79 80 80 80 80 81 81 82 82 82 82 82 82 81
99 95 84 81 86 91 95 98 98 85 78 85 78 65 75 96 100 101 102 104 101 94 89 85 80 80 80 80 80 80 80 80 80 81 81 80 80 80 80 80 80 81 82 82 82 81 81 81 81
91 94 81 78 86 92 96 99 95 92 93 82 75 67 67 92 98 100 104 103 103 95 91 84 80 80 80 80 80 80 80 80 80 80 80 80 80 80 80 80 80 81 81 81 81 81 80 80 80
88 87 83 87 86 88 93 101 96 92 87 87 86 68 69 79 100 102 102 102 101 97 91 87 86 82 80 80 79 79 79 79 79 79 80 80 80 80 80 80 80 80 80 80 80 80 80 79 79
96 92 87 89 85 84 95 98 100 91 67 95 93 76 77 91 100 81 69 74 69 80 94 92 88 87 85 82 80 79 79 79 79 79 79 79 80 79 79 79 79 79 79 79 79 79 79 79 78
102 85 82 86 87 89 97 93 99 87 76 76 92 89 96 100 75 70 66 66 71 71 77 86 81 91 92 90 83 80 80 80 79 80 79 79 82 82 83 81 81 79 79 79 79 79 78 78 78
93 86 87 94 94 91 95 93 94 91 85 84 90 96 95 97 92 76 70 69 77 79 80 71 69 78 87 94 84 84 84 83 82 83 82 81 84 84 88 86 81 81 79 79 79 78 78 78 80
95 87 93 94 95 97 94 91 95 89 83 89 87 91 91 90 89 87 88 88 87 87 81 67 67 75 77 85 81 68 68 67 67 75 82 82 85 85 84 85 83 80 80 81 80 79 78 80 81
89 95 95 95 96 95 92 93 87 87 86 93 93 93 87 85 86 86 86 86 87 88 85 79 77 75 77 79 73 68 67 67 67 68 74 74 73 79 82 82 83 81 82 80 81 83 81 80 81
91 94 95 96 95 95 94 87 86 86 91 93 92 90 85 85 85 86 86 87 87 85 87 88 84 80 81 80 74 69 67 66 67 69 72 72 71 74 76 80 81 81 81 83 83 84 84 83 83
96 95 94 95 94 94 87 86 84 84 88 87 85 84 85 84 83 84 84 84 83 84 86 86 85 81 84 81 80 72 71 70 72 72 73 75 73 72 75 77 79 79 80 82 81 82 80 82 83
95 88 92 93 93 84 85 69 56 86 87 84 83 84 84 84 85 83 84 82 84 84 83 83 86 85 82 83 82 78 76 76 73 74 77 76 75 73 74 75 72 76 78 76 75 71 72 76 76
89 89 81 90 87 81 75 60 71 84 85 82 82 82 82 83 84 84 83 82 82 82 81 80 83 82 81 79 82 83 81 80 76 76 76 79 77 75 72 70 70 71 71 73 71 72 70 71 73
86 78 81 83 93 76 70 54 70 70 84 80 79 80 81 80 81 82 83 83 81 80 78 78 78 79 78 77 80 79 76 80 80 79 78 77 77 78 73 71 71 71 70 69 68 67 69 67 71
79 82 84 81 89 73 59 56 64 73 84 80 80 80 79 78 78 80 81 82 81 80 78 77 77 76 76 78 77 77 77 78 78 78 78 76 76 77 74 74 73 72 70 69 68 67 67 68 69
88 85 83 85 91 87 77 62 81 84 82 80 80 78 77 78 80 81 81 82 81 80 77 76 75 75 75 75 75 74 73 75 76 76 75 73 73 75 73 74 73 73 71 69 69 67 65 66 68
87 84 83 86 89 86 65 59 59 79 80 79 78 78 78 78 79 80 80 81 80 79 79 77 76 75 75 74 74 73 73 74 74 74 72 71 72 72 73 70 71 71 70 69 68 68 65 65 66
86 83 81 81 86 87 73 58 60 65 66 80 80 80 81 80 78 79 80 80 82 80 78 78 76 75 75 74 73 72 72 72 71 71 72 70 72 70 64 66 65 66 68 66 66 66 65 63 66
80 90 86 84 80 72 80 55 56 59 57 60 70 78 79 80 80 79 78 80 80 79 79 74 73 74 72 70 69 67 65 65 67 67 69 69 67 66 66 62 62 63 67 66 64 65 65 64 63
83 89 86 84 80 78 73 67 53 59 53 60 68 77 67 65 80 78 78 78 79 79 75 72 73 71 71 69 66 67 65 66 67 65 63 61 61 60 61 59 59 60 63 66 66 64 64 63 62
91 86 85 84 80 68 69 71 61 57 64 69 69 78 76 75 78 77 82 78 78 79 78 77 72 65 67 67 66 65 62 62 62 60 60 59 58 57 56 57 57 58 61 63 64 64 64 63 63
87 80 68 65 66 60 74 68 60 74 73 72 76 77 77 80 79 77 76 74 76 77 79 73 68 67 69 67 66 64 61 61 59 58 57 56 55 54 53 54 53 56 57 59 61 61 61 59 56
83 80 69 57 62 68 78 60 61 80 81 81 77 78 80 79 80 79 80 80 80 74 72 73 71 69 69 66 65 63 62 62 60 58 56 57 56 55 53 53 53 55 55 56 57 55 56 55 53
81 76 83 71 74 69 67 70 75 77 79 79 79 78 77 79 81 79 80 76 74 75 73 73 71 70 67 67 65 62 59 58 57 57 57 56 57 56 53 53 52 55 55 55 56 54 52 52 51
85 88 72 74 60 58 63 62 60 70 73 77 76 76 78 79 80 80 76 74 75 75 71 69 70 68 66 65 63 61 60 58 57 56 56 55 55 54 55 52 51 53 53 53 52 52 53 52 51
82 77 77 75 72 61 60 58 73 71 73 74 76 77 78 79 80 76 75 73 73 72 72 68 68 66 65 64 62 60 58 56 57 57 56 55 54 54 53 53 51 50 51 51 49 49 49 49 50
85 78 77 66 63 69 68 58 76 76 77 76 77 78 79 78 79 76 74 72 71 70 69 66 65 64 62 62 61 59 58 58 55 55 54 54 53 54 52 52 52 50 50 50 48 47 47 47 47
MSLP
1008.01 1007.88 1007.74 1006.86 1007.65 1008.38 1005.94 1002.09 999.34 998.69 998.00 998.16 998.61 999.84 1000.72 1001.31 1001.67 1003.18 1004.12 1004.30 1005.56 1006.74 1007.80 1008.42 1008.94 1009.29 1009.43 1009.59 1009.80 1010.09 1010.46 1010.77 1011.12 1011.38 1011.69 1012.00 1012.30 1012.63 1012.95 1013.25 1013.45 1013.61 1013.82 1013.98 1014.12 1014.25 1014.39 1014.57 1014.65
1006.79 1006.41 1006.00 1004.93 1005.17 1005.56 1002.73 1000.59 998.80 998.52 998.54 998.58 999.68 999.88 1000.95 1002.30 1002.56 1003.55 1004.11 1004.46 1005.50 1006.65 1007.37 1008.30 1009.06 1009.42 1009.67 1009.72 1009.89 1010.22 1010.60 1010.96 1011.23 1011.60 1011.94 1012.28 1012.57 1012.82 1013.12 1013.45 1013.66 1013.83 1013.91 1014.08 1014.22 1014.38 1014.50 1014.60 1014.73
1007.38 1006.02 1004.62 1003.03 1002.09 1001.06 999.63 998.94 998.35 998.75 999.38 999.82 1000.37 1001.54 1001.89 1002.77 1003.30 1003.84 1004.07 1004.32 1005.02 1005.93 1006.76 1008.07 1008.64 1009.19 1009.69 1009.91 1010.05 1010.19 1010.54 1010.98 1011.40 1011.75 1012.04 1012.41 1012.76 1013.04 1013.34 1013.50 1013.66 1013.76 1013.91 1014.09 1014.20 1014.33 1014.43 1014.55 1014.67
1006.02 1004.81 1003.70 1001.47 999.64 999.13 998.49 998.33 998.29 999.22 1001.49 1000.96 1001.54 1004.17 1003.97 1002.95 1003.46 1003.67 1003.49 1003.53 1004.31 1005.19 1006.56 1007.81 1008.08 1008.47 1008.90 1009.45 1009.94 1010.26 1010.62 1011.08 1011.44 1011.85 1012.06 1012.46 1012.76 1012.94 1013.17 1013.35 1013.46 1013.60 1013.71 1013.91 1014.16 1014.29 1014.43 1014.55 1014.61
1004.66 1003.03 1001.29 1000.23 998.57 998.30 998.09 997.91 997.77 1000.20 1002.09 1003.16 1004.53 1005.56 1006.61 1004.22 1003.75 1003.44 1003.59 1003.71 1004.05 1005.66 1006.84 1007.61 1008.09 1008.37 1008.63 1009.09 1009.76 1010.34 1010.72 1011.05 1011.52 1011.74 1011.95 1012.24 1012.47 1012.71 1013.08 1013.36 1013.56 1013.68 1013.77 1013.84 1013.94 1014.17 1014.37 1014.48 1014.61
1003.37 1001.92 1000.08 998.60 997.99 998.22 998.02 997.95 998.42 1000.23 1000.99 1003.26 1004.43 1006.59 1008.28 1005.22 1003.67 1003.56 1003.60 1004.22 1004.60 1005.95 1007.17 1008.28 1008.54 1008.67 1009.11 1009.55 1010.00 1010.44 1010.72 1010.89 1011.08 1011.31 1011.53 1011.82 1012.06 1012.34 1012.56 1012.86 1013.13 1013.39 1013.55 1013.65 1013.88 1014.02 1014.24 1014.40 1014.51
1002.65 1000.84 999.17 997.73 997.84 998.25 998.31 998.19 998.35 999.95 1001.74 1001.83 1003.52 1005.52 1006.19 1004.30 1003.95 1004.18 1004.45 1005.04 1005.27 1005.65 1006.43 1007.10 1008.02 1008.87 1009.19 1009.52 1009.78 1010.05 1010.47 1010.66 1010.89 1011.22 1011.39 1011.48 1011.73 1012.02 1012.28 1012.48 1012.72 1012.96 1013.23 1013.32 1013.45 1013.58 1013.78 1013.98 1014.11
1001.37 1000.36 998.47 997.85 997.98 998.57 998.64 998.53 998.92 1000.48 1004.13 1002.36 1002.36 1004.16 1004.72 1003.98 1004.48 1009.13 1010.55 1008.80 1009.05 1008.47 1005.46 1006.38 1007.90 1008.21 1008.95 1009.45 1009.56 1009.57 1010.18 1010.88 1011.22 1011.63 1011.88 1011.94 1011.86 1011.81 1011.89 1012.18 1012.30 1012.38 1012.59 1012.76 1013.01 1013.16 1013.34 1013.48 1013.63
1001.12 1000.39 998.69 998.21 998.43 998.75 999.15 999.48 999.94 1001.73 1002.87 1005.92 1003.31 1003.68 1003.10 1003.38 1005.92 1006.02 1009.14 1010.97 1011.29 1008.93 1008.54 1006.66 1009.17 1006.68 1006.60 1007.81 1008.74 1009.38 1009.80 1010.34 1011.22 1011.37 1011.57 1011.98 1011.65 1011.27 1011.16 1011.18 1011.45 1011.91 1012.13 1012.26 1012.44 1012.65 1012.80 1012.92 1013.07
1000.82 999.77 998.95 999.16 999.40 999.55 999.38 1000.26 1000.89 1001.40 1002.80 1003.29 1003.45 1003.22 1003.71 1004.30 1005.88 1008.89 1009.23 1010.34 1009.22 1007.60 1008.00 1008.13 1007.14 1006.50 1005.57 1005.85 1008.57 1010.11 1010.47 1011.96 1012.13 1011.42 1010.75 1011.63 1011.39 1010.79 1010.14 1009.93 1010.36 1011.08 1011.55 1011.84 1012.00 1012.07 1012.24 1012.46 1012.42
1000.08 999.49 999.47 999.67 1000.19 1000.01 999.88 1000.90 1001.60 1002.18 1003.23 1003.37 1003.32 1003.75 1004.63 1005.29 1006.45 1007.46 1007.71 1007.90 1007.52 1007.85 1008.02 1009.60 1009.67 1010.32 1007.28 1008.63 1009.72 1010.38 1010.81 1012.14 1011.06 1012.91 1011.13 1010.56 1010.76 1010.33 1009.97 1009.34 1009.62 1010.12 1010.55 1011.07 1011.36 1011.61 1011.79 1011.58 1011.59
1000.12 999.61 1000.12 999.99 1000.14 1000.11 1000.46 1001.78 1003.02 1003.58 1004.21 1004.31 1004.28 1004.83 1005.92 1006.61 1007.13 1007.94 1008.33 1008.61 1008.72 1008.76 1008.61 1011.35 1011.60 1009.63 1009.63 1009.32 1010.39 1011.15 1009.64 1010.81 1013.54 1013.54 1011.73 1010.78 1011.36 1010.64 1010.17 1009.76 1009.64 1010.09 1010.23 1010.37 1010.58 1010.51 1010.55 1010.61 1010.64
1000.20 999.78 1000.42 1000.43 1000.51 1000.90 1001.80 1003.27 1004.23 1004.64 1004.87 1005.01 1005.47 1006.15 1007.18 1007.64 1008.04 1008.36 1008.58 1008.74 1009.51 1009.43 1009.72 1010.29 1010.91 1010.50 1010.48 1010.48 1010.79 1010.95 1010.14 1011.60 1011.98 1011.94 1012.59 1012.93 1012.44 1011.24 1010.52 1009.88 1009.47 1009.51 1009.80 1009.75 1010.11 1009.79 1009.54 1009.65 1009.65
999.85 999.83 1000.29 1000.51 1000.86 1001.59 1002.56 1004.46 1005.13 1006.15 1006.48 1006.32 1007.09 1008.07 1008.51 1009.00 1009.32 1009.13 1008.99 1009.16 1010.13 1010.47 1010.84 1011.38 1011.40 1011.47 1011.32 1011.59 1011.56 1012.00 1011.43 1011.02 1012.03 1012.30 1012.53 1012.58 1011.51 1011.50 1010.73 1010.38 1010.13 1010.22 1009.90 1009.86 1009.79 1009.76 1009.17 1008.67 1008.62
1000.13 1000.38 1000.37 1000.44 1001.28 1003.74 1004.61 1006.95 1009.73 1007.34 1006.83 1006.79 1007.85 1008.71 1009.21 1009.73 1010.03 1010.26 1010.07 1009.40 1010.07 1011.02 1011.47 1011.49 1011.36 1011.77 1011.82 1011.64 1011.35 1011.04 1011.22 1011.10 1010.84 1010.76 1011.07 1010.90 1010.85 1010.92 1010.69 1010.69 1010.74 1010.73 1010.32 1010.31 1010.15 1009.84 1009.61 1008.69 1008.71
1000.26 1000.04 999.69 1000.20 1002.15 1005.27 1006.26 1010.41 1009.38 1006.97 1007.28 1007.95 1008.66 1009.35 1009.73 1010.03 1010.62 1011.10 1011.29 1011.17 1011.27 1011.47 1011.70 1011.99 1012.25 1012.11 1012.05 1012.05 1011.53 1011.14 1010.66 1010.49 1010.80 1010.76 1010.56 1010.42 1010.88 1010.65 1010.59 1010.82 1010.86 1010.68 1010.76 1010.50 1010.38 1010.08 1009.72 1009.40 1009.00
999.71 999.08 998.81 1000.01 1001.12 1004.95 1006.73 1011.23 1008.17 1008.39 1006.68 1009.24 1010.08 1010.24 1010.42 1010.75 1011.18 1011.58 1012.02 1012.28 1012.47 1012.78 1013.04 1013.08 1013.20 1013.10 1012.65 1012.18 1012.15 1012.11 1011.80 1011.51 1011.22 1010.95 1010.91 1011.01 1010.82 1010.32 1010.23 1010.44 1010.79 1010.58 1010.54 1010.43 1010.31 1010.18 1009.71 1009.11 1009.32
998.29 997.80 997.74 998.98 1001.04 1004.39 1007.88 1008.93 1009.31 1009.36 1007.92 1009.68 1010.54 1010.55 1011.42 1011.75 1011.87 1012.31 1012.83 1013.15 1013.32 1013.59 1013.84 1013.94 1014.12 1014.20 1013.85 1013.26 1012.85 1012.82 1012.64 1012.21 1011.70 1011.38 1011.29 1010.82 1010.36 1010.11 1010.52 1010.59 1010.32 1009.86 1010.07 1010.11 1010.02 1009.91 1009.77 1009.37 1009.12
997.97 997.68 997.85 999.07 1000.79 1002.83 1005.52 1007.18 1006.99 1007.41 1007.66 1008.89 1010.57 1011.04 1011.76 1012.51 1012.54 1012.80 1013.24 1013.54 1013.70 1013.89 1014.09 1014.35 1014.53 1014.56 1014.55 1014.37 1013.86 1013.66 1013.17 1012.49 1012.06 1011.77 1011.48 1011.74 1011.54 1011.11 1010.76 1010.47 1010.02 1009.67 1009.55 1009.64 1009.64 1009.65 1009.41 1009.34 1008.92
998.35 997.93 997.78 998.99 1000.82 1003.01 1006.73 1009.94 1009.92 1009.05 1007.93 1010.03 1010.22 1011.06 1011.78 1012.89 1013.38 1013.25 1013.38 1013.65 1013.73 1013.96 1014.20 1014.51 1014.68 1014.70 1014.84 1014.80 1014.60 1014.49 1014.16 1013.49 1013.04 1012.62 1012.10 1012.09 1011.72 1011.28 1010.88 1010.83 1010.14 1009.58 1009.47 1009.41 1009.19 1009.15 1009.15 1009.03 1008.88
998.42 998.04 998.48 999.20 1000.30 1002.19 1005.22 1009.22 1011.55 1013.05 1009.35 1011.01 1010.70 1010.12 1011.25 1012.17 1012.63 1012.50 1013.14 1013.49 1013.52 1013.65 1014.25 1014.41 1014.66 1014.74 1014.70 1014.75 1014.73 1014.65 1014.49 1014.15 1013.94 1013.51 1012.99 1012.70 1012.13 1012.02 1012.02 1011.54 1011.19 1010.51 1009.98 1009.37 1009.20 1009.14 1009.09 1009.01 1008.63
998.43 998.44 998.90 999.49 1000.33 1001.49 1003.79 1009.90 1013.00 1014.20 1014.36 1012.52 1012.07 1010.90 1011.61 1011.24 1012.29 1012.60 1013.02 1013.24 1013.35 1013.86 1014.31 1014.62 1014.73 1014.69 1014.86 1015.09 1015.08 1015.20 1015.16 1014.96 1014.84 1014.42 1013.91 1013.40 1013.28 1013.08 1012.55 1012.46 1011.85 1011.24 1010.53 1009.64 1009.50 1009.33 1009.09 1008.89 1008.71
999.11 999.48 999.49 999.86 1000.24 1001.48 1004.24 1006.48 1011.86 1012.70 1013.79 1013.04 1012.15 1011.75 1013.04 1013.76 1012.71 1012.95 1013.39 1013.64 1013.88 1014.43 1014.87 1014.79 1014.71 1015.19 1015.59 1015.88 1015.95 1015.72 1015.70 1015.71 1015.38 1015.29 1014.91 1014.84 1014.59 1014.21 1013.59 1013.32 1012.79 1011.99 1011.12 1010.14 1009.50 1009.16 1008.79 1008.45 1008.41
999.78 999.93 999.93 1000.06 1000.26 1001.22 1003.75 1005.36 1009.91 1011.89 1011.79 1012.05 1012.10 1011.54 1012.13 1012.64 1012.88 1013.37 1013.56 1014.27 1014.37 1014.47 1014.80 1014.73 1015.17 1016.64 1016.42 1015.90 1016.41 1016.07 1016.50 1016.24 1016.07 1016.07 1015.84 1015.80 1015.83 1015.54 1015.03 1014.18 1013.29 1012.38 1011.31 1010.37 1009.59 1009.10 1008.74 1008.50 1008.46
999.86 999.85 999.69 999.98 1000.16 1002.39 1003.19 1005.58 1009.41 1008.93 1010.24 1011.04 1010.88 1011.38 1012.23 1012.31 1012.90 1013.54 1013.87 1014.17 1014.31 1014.54 1014.70 1015.98 1016.21 1016.53 1016.43 1016.54 1016.48 1017.02 1016.90 1016.77 1016.94 1016.85 1016.73 1016.38 1016.29 1016.09 1015.66 1014.92 1013.98 1013.02 1012.16 1011.16 1010.18 1009.71 1009.49 1009.49 1009.38
999.52 1000.17 1000.31 1000.57 1000.82 1001.47 1002.73 1006.40 1008.88 1008.38 1009.17 1009.90 1011.16 1011.59 1011.92 1012.42 1012.84 1013.16 1013.46 1013.92 1014.43 1015.32 1015.88 1016.09 1016.25 1016.73 1016.69 1016.96 1017.47 1017.59 1017.56 1017.66 1017.66 1017.59 1017.35 1016.94 1016.63 1016.32 1016.00 1015.23 1014.38 1013.33 1012.62 1011.89 1011.08 1010.82 1010.68 1010.46 1010.25
1000.21 1000.37 1001.05 1001.47 1001.42 1002.12 1004.71 1006.84 1007.95 1008.58 1009.12 1009.97 1010.44 1011.33 1012.14 1012.45 1012.55 1013.10 1013.47 1014.55 1015.26 1015.57 1016.17 1016.54 1016.82 1017.28 1017.32 1017.57 1017.86 1018.14 1018.39 1018.50 1018.30 1018.01 1017.73 1017.38 1016.87 1016.63 1016.19 1015.59 1014.87 1013.96 1013.35 1012.68 1012.02 1011.77 1011.67 1011.42 1011.15
1000.69 1001.03 1001.41 1001.78 1002.37 1003.07 1005.35 1007.34 1008.89 1009.32 1009.73 1010.15 1010.68 1011.48 1012.01 1012.39 1012.86 1013.30 1014.66 1015.48 1015.95 1016.24 1016.86 1017.32 1017.40 1017.54 1018.02 1018.23 1018.55 1018.78 1018.84 1019.01 1018.90 1018.40 1018.04 1017.69 1017.36 1017.02 1016.44 1016.02 1015.52 1014.80 1014.20 1013.73 1013.23 1012.75 1012.45 1012.11 1011.86
1000.94 1001.51 1002.37 1003.00 1003.58 1004.23 1005.14 1008.11 1009.49 1010.07 1010.56 1010.77 1011.09 1011.78 1012.37 1012.86 1013.44 1014.39 1015.39 1016.42 1016.87 1017.31 1017.61 1017.89 1018.07 1018.36 1018.41 1018.59 1018.79 1019.12 1019.34 1019.33 1018.89 1018.54 1018.33 1018.08 1017.80 1017.32 1016.91 1016.42 1016.15 1015.59 1014.95 1014.63 1014.16 1013.72 1013.42 1013.07 1012.67
1002.07 1002.71 1003.33 1004.05 1004.64 1005.01 1005.80 1009.22 1010.31 1010.60 1010.87 1011.36 1011.79 1012.31 1012.96 1013.69 1014.29 1015.17 1016.19 1017.04 1017.39 1017.75 1018.08 1018.55 1019.07 1019.12 1019.26 1019.19 1019.28 1019.56 1019.66 1019.27 1018.99 1018.80 1018.72 1018.40 1018.03 1017.65 1017.30 1016.88 1016.38 1016.10 1015.80 1015.41 1015.00 1014.62 1014.19 1013.73 1013.25
Wind_Speed
9 11 8 6 8 3 8 12 12 12 10 12 19 19 18 22 15 7 9 12 21 18 14 13 11 11 10 10 8 10 11 12 12 12 12 12 10 9 8 7 7 7 8 8 8 7 7 5 5
11 16 12 8 7 11 9 16 9 12 9 10 18 20 22 19 17 14 12 18 22 17 13 12 11 10 9 10 9 10 10 11 12 11 11 11 10 9 8 7 7 7 7 7 7 7 6 5 5
10 14 9 11 10 13 7 8 8 12 23 16 12 22 17 16 15 8 9 16 20 16 16 14 13 12 10 9 8 7 10 11 12 11 11 11 10 9 7 7 7 8 7 7 6 6 6 6 6
7 11 8 13 8 1 9 6 20 9 20 3 19 8 5 15 13 11 11 15 20 22 18 16 15 14 13 11 9 8 9 9 10 11 10 11 10 10 10 9 9 8 8 7 6 6 6 6 6
12 8 13 16 6 9 8 8 7 23 12 10 28 14 18 12 12 11 9 9 17 20 16 16 15 14 13 12 11 9 9 8 8 8 9 11 11 10 9 8 7 7 8 7 7 7 6 6 7
10 12 12 9 13 10 6 10 28 11 10 23 13 13 6 18 10 11 11 11 15 19 16 13 13 13 12 12 11 10 9 9 8 8 9 10 11 11 11 11 10 10 9 8 8 7 7 7 7
15 13 19 6 11 11 8 6 14 15 18 13 17 12 9 13 8 11 12 12 12 19 17 15 13 11 12 12 12 11 10 9 9 9 9 10 10 10 11 12 12 12 11 11 10 9 9 10 10
14 14 13 5 12 12 7 15 13 22 23 12 16 11 6 6 11 38 33 28 35 23 18 17 13 15 13 11 14 14 12 10 9 8 8 9 9 10 11 12 13 15 15 14 13 12 12 12 12
14 10 11 12 10 10 9 15 14 22 21 10 15 10 10 9 21 27 22 2 7 17 15 16 16 18 17 16 13 14 17 15 10 9 10 8 7 11 14 16 16 18 17 17 15 15 14 13 14
12 12 14 10 9 11 10 13 14 19 8 9 17 14 15 24 23 21 19 14 8 5 14 20 28 20 7 15 11 5 7 3 5 8 9 7 10 10 14 16 23 17 18 17 18 18 17 14 9
13 6 8 5 9 7 7 16 14 16 14 15 19 14 25 20 18 20 18 20 15 16 20 15 14 15 18 12 6 8 2 7 10 15 6 8 7 5 6 3 6 9 15 8 12 11 10 12 10
8 4 6 7 3 9 10 16 14 15 14 13 17 22 26 21 23 22 20 21 18 18 17 11 4 11 12 8 7 2 1 10 3 11 14 6 5 7 6 3 2 6 7 10 10 7 12 14 14
9 2 2 2 1 8 11 16 14 17 15 20 22 21 22 18 18 18 18 20 19 18 17 16 13 11 11 11 8 6 5 4 5 8 7 6 9 10 6 5 4 4 5 7 7 10 8 10 13
8 5 5 5 8 4 16 17 14 15 16 18 20 17 18 16 14 13 13 17 17 16 15 14 15 11 9 6 2 4 1 3 6 6 5 6 4 5 5 5 6 5 4 6 7 10 6 6 7
4 10 10 11 8 13 13 13 22 15 17 19 19 17 18 18 17 14 14 16 14 13 14 14 11 10 8 5 4 3 5 4 3 2 6 5 6 5 6 6 6 8 9 9 7 5 12 3 2
11 13 15 12 20 10 18 6 17 7 19 18 17 16 15 17 17 15 14 14 15 15 15 16 16 18 15 12 8 9 6 2 4 4 5 5 6 6 5 6 6 7 8 9 7 8 6 6 6
12 14 18 12 16 11 13 3 28 24 24 16 13 14 14 15 14 13 14 14 14 14 14 15 14 16 17 11 10 11 12 9 8 6 5 3 5 5 4 4 6 7 7 7 5 8 6 4 10
15 14 12 15 14 29 16 10 30 17 19 15 12 13 11 12 13 13 12 12 11 11 11 11 9 12 14 10 8 9 8 8 7 8 9 10 8 9 7 7 7 4 4 6 6 7 9 9 9
14 10 5 6 6 8 9 14 18 15 18 16 11 11 10 9 12 11 10 9 9 8 9 10 10 8 7 8 8 9 10 9 9 9 12 15 12 11 9 8 7 7 4 6 6 6 6 6 9
11 13 3 6 2 6 26 22 22 3 16 13 13 10 9 8 8 8 8 6 5 5 5 6 5 6 5 5 5 6 9 9 9 11 10 14 14 13 13 14 11 8 7 6 7 6 5 3 4
12 9 3 9 3 8 12 11 10 15 33 7 8 11 11 11 10 9 6 3 4 3 6 4 6 6 6 7 6 6 7 8 9 11 10 14 16 18 14 16 14 14 11 6 7 9 9 6 5
12 9 4 9 8 11 9 8 6 7 12 8 14 8 3 3 5 8 8 1 6 8 4 7 2 1 5 6 7 12 9 10 10 12 12 12 17 17 18 18 17 15 12 9 7 8 7 7 7
10 10 8 12 13 11 9 5 1 7 9 15 10 8 13 7 9 8 13 8 11 12 4 4 1 9 9 14 12 9 11 8 8 10 13 15 16 19 19 18 16 15 12 12 9 10 10 7 5
9 8 13 12 12 11 6 3 6 9 17 12 13 12 10 4 13 9 11 13 9 7 7 8 13 13 11 12 10 15 13 12 10 11 10 9 9 10 14 18 16 15 14 14 11 10 9 8 5
8 11 10 9 6 6 9 15 12 6 13 12 12 11 14 12 12 9 9 6 5 6 10 18 14 11 12 11 16 13 12 12 13 12 9 11 10 8 12 14 13 11 13 14 12 9 10 9 6
3 7 7 12 11 11 7 8 5 15 14 19 14 13 11 12 8 7 5 6 8 20 17 16 14 14 14 13 13 12 13 9 8 9 8 8 8 9 12 13 14 13 13 13 10 9 9 8 7
7 6 9 8 14 8 15 19 18 10 12 17 15 15 12 8 9 10 10 14 16 15 13 13 14 12 14 15 12 10 10 8 7 6 8 7 7 9 11 13 14 14 13 14 12 8 9 8 8
5 8 6 3 6 7 12 13 6 11 12 10 14 11 11 12 14 15 19 17 16 15 17 17 15 15 15 13 12 10 10 11 10 9 10 11 11 9 10 12 14 14 14 14 12 10 9 9 7
1 7 5 6 5 5 8 8 9 9 10 11 13 13 14 13 14 16 16 16 14 15 16 15 15 15 13 12 10 12 12 11 9 10 11 12 11 11 12 10 12 13 12 12 11 11 11 11 10
6 8 7 5 10 9 8 6 8 8 9 8 10 12 13 15 17 19 17 18 16 15 15 15 13 13 12 8 12 12 11 12 11 12 12 11 11 11 11 12 9 10 12 12 11 11 10 10 10
Wind_Direction
193 206 220 255 88 299 240 246 30 125 42 66 71 96 63 53 46 60 72 93 107 107 118 120 109 110 107 108 121 152 150 149 149 151 149 149 148 146 138 133 131 135 136 142 151 160 173 180 164
230 229 220 263 224 202 242 251 68 49 29 78 48 67 74 57 71 74 90 102 110 118 129 129 119 114 106 108 114 134 144 151 152 151 149 150 152 153 153 152 152 155 152 155 159 169 168 166 165
257 262 266 229 230 251 18 37 16 78 54 49 78 46 35 88 74 96 118 101 118 134 128 130 129 123 112 109 111 136 142 150 153 155 154 153 153 153 160 166 174 179 180 180 178 181 184 183 184
253 220 232 244 206 75 59 8 78 55 24 345 102 53 348 79 90 111 127 150 148 133 132 137 134 133 132 126 121 124 127 140 153 150 158 159 160 167 173 184 187 194 194 197 206 202 203 207 206
238 268 244 283 54 51 20 354 94 87 136 41 80 39 8 89 115 136 138 121 118 113 130 139 137 141 140 135 128 123 128 142 164 172 164 174 171 178 183 186 192 207 214 216 220 223 219 219 225
253 248 273 288 87 49 44 336 82 83 63 120 84 90 286 283 156 164 130 96 113 118 130 138 140 142 141 135 131 132 137 143 152 163 169 174 177 184 182 188 196 209 218 223 230 230 228 224 227
255 269 269 40 95 70 346 347 15 83 43 52 127 125 215 276 142 90 83 99 110 124 136 148 153 149 146 146 146 145 148 154 161 168 170 173 182 189 190 194 201 208 215 219 223 225 222 221 221
256 286 282 2 58 70 335 13 31 33 15 39 136 145 199 229 148 40 24 8 38 335 152 151 153 163 163 163 161 159 161 164 171 179 187 193 197 199 204 208 211 211 211 214 219 223 226 226 224
278 280 286 52 10 42 23 13 43 97 92 304 89 143 125 190 101 79 99 23 93 278 340 50 354 173 174 162 175 169 167 169 173 190 202 209 226 207 213 212 220 210 215 215 217 222 226 226 229
240 269 53 34 34 344 68 49 339 55 62 128 109 108 43 40 62 129 133 169 184 298 49 72 357 314 305 141 147 177 170 54 287 209 185 214 229 236 209 211 209 206 215 221 221 221 223 228 238
251 340 9 66 44 298 55 63 27 65 59 42 63 60 59 46 47 73 60 60 68 68 78 99 164 299 26 33 39 89 116 63 18 312 251 202 268 247 264 219 181 201 211 217 221 229 228 230 224
270 116 323 34 42 22 86 89 81 88 82 70 67 65 63 56 46 48 48 52 36 41 63 105 57 4 31 29 16 214 281 90 100 270 324 340 319 295 301 280 227 194 229 215 228 224 226 220 231
256 226 248 133 342 114 78 89 91 88 87 76 72 75 78 73 61 59 59 62 52 50 38 47 40 36 29 28 23 22 13 112 239 288 313 304 317 294 303 324 327 315 304 302 239 230 240 219 219
257 224 231 224 175 170 126 105 98 84 88 85 80 81 82 88 80 72 64 65 55 44 64 69 59 48 50 47 74 132 192 236 224 211 237 269 311 325 331 330 332 311 302 322 314 323 298 249 231
295 269 219 229 127 97 58 54 325 140 121 107 111 109 98 90 79 68 55 58 56 58 40 26 71 75 43 25 3 149 162 197 275 277 298 289 300 309 316 326 322 311 308 317 310 304 292 323 319
238 236 240 185 130 76 71 27 262 210 121 108 109 104 102 93 93 82 72 61 46 33 36 39 18 16 3 15 360 6 11 317 198 208 234 270 321 331 331 303 284 279 292 299 302 289 293 288 292
209 239 226 188 203 110 104 305 263 263 114 118 124 125 113 100 87 85 77 63 54 43 35 32 27 9 355 10 359 12 355 352 354 355 3 5 291 321 278 272 275 279 289 281 277 287 277 280 276
219 228 198 212 181 121 138 141 255 196 120 129 148 126 106 111 98 87 76 70 64 58 43 35 37 16 358 355 354 7 350 350 355 347 11 347 339 356 357 314 289 260 275 288 273 257 267 266 268
323 317 91 121 65 325 179 189 161 120 133 142 131 121 121 110 112 94 78 69 74 63 57 44 21 20 5 359 360 6 342 348 343 4 348 26 354 340 323 305 317 303 248 269 283 282 278 274 268
280 271 275 93 112 305 75 21 344 342 146 128 132 135 129 123 99 96 95 96 100 100 77 63 37 6 25 12 351 12 340 355 354 355 334 5 345 338 341 344 326 311 325 291 285 286 291 267 256
255 302 33 300 144 226 122 130 200 22 6 92 143 145 154 151 153 143 117 82 39 86 66 55 40 15 33 13 8 2 339 357 356 340 350 350 351 350 2 1 353 352 339 333 313 303 286 281 282
302 228 348 295 282 290 178 89 301 82 147 256 274 171 70 25 106 94 129 169 59 82 108 79 92 50 33 354 8 14 8 3 345 349 352 357 358 358 5 356 349 339 329 334 334 312 291 299 286
320 339 298 289 283 281 121 110 95 129 215 229 220 114 90 154 66 37 55 51 59 51 123 171 272 56 25 40 30 25 21 1 353 1 4 6 359 359 356 352 341 335 325 319 323 320 305 296 293
326 283 266 272 270 258 133 255 146 197 217 211 238 85 102 138 59 61 74 61 28 13 30 353 53 52 42 39 36 33 26 11 13 5 7 5 3 355 350 341 338 333 336 332 329 316 320 322 340
222 250 270 225 249 290 198 77 28 108 147 183 114 119 97 88 85 70 34 22 20 41 24 64 55 36 29 34 36 36 31 19 21 9 1 358 356 352 344 341 338 337 339 346 341 3 24 28 41
311 337 336 337 336 348 119 100 178 87 114 97 85 89 85 76 62 27 25 18 16 55 47 42 32 34 30 31 33 34 36 19 18 14 359 357 353 354 345 346 345 343 359 357 16 21 15 20 28
355 357 355 313 285 264 97 101 56 73 70 116 103 76 58 31 40 40 27 46 55 50 53 34 39 25 38 29 21 23 40 35 7 8 1 341 346 358 352 356 353 355 14 10 15 28 20 23 23
270 334 295 227 309 343 101 92 91 52 49 45 80 68 48 33 14 24 52 43 36 26 45 32 18 23 32 23 39 31 28 26 9 357 9 357 15 359 5 6 359 1 14 14 15 17 17 31 32
323 39 337 344 297 335 302 85 74 73 58 33 43 38 23 13 12 54 49 42 35 38 27 34 20 25 21 28 36 24 21 10 353 16 8 20 15 9 7 10 10 6 11 19 15 15 17 23 21
68 6 15 342 360 329 294 94 73 42 66 55 33 27 28 24 21 42 38 33 24 21 28 41 25 20 12 14 32 26 16 5 10 19 28 20 12 16 6 358 18 20 16 14 16 13 9 15 14